WB7TUJ Weather Reports


Display with metric or nautical units.
time (UTC)temp
F
wind
direction
speed
MPH
gust
MPH
rain 1hr
in
rain 24hr
in
rain mn
in
humidity
%
barometer
mb
20260505163007 68 183 6.0 13.0 0.00 0.00 0.00 55 966.9
20260505161504 67 242 1.0 9.0 0.00 0.00 0.00 57 966.9
20260505153004 67 151 1.0 7.0 0.00 0.00 0.00 61 966.7
20260505151600 66 207 0.0 8.0 0.00 0.00 0.00 63 966.8
20260505150109 66 203 4.0 8.0 0.00 0.00 0.00 66 966.8
20260505140105 65 163 0.0 8.0 0.00 0.00 0.00 69 966.8
20260505130110 64 90 0.0 0.0 0.00 0.00 0.00 75 966.3
20260505124554 64 90 0.0 0.0 0.00 0.00 0.00 75 966.2
20260505123055 64 90 0.0 0.0 0.00 0.00 0.00 74 966.0
20260505121552 64 90 0.0 6.0 0.00 0.00 0.00 74 966.0
20260505120054 64 91 0.0 0.0 0.00 0.00 0.00 74 965.8
20260505114551 64 91 0.0 0.0 0.00 0.00 0.00 72 965.9
20260505113050 64 90 3.0 10.0 0.00 0.00 0.00 71 965.7
20260505111545 65 63 0.0 6.0 0.00 0.00 0.00 68 965.9
20260505101544 65 143 4.0 9.0 0.00 0.00 0.00 63 966.6
20260505100036 65 134 0.0 4.0 0.00 0.00 0.00 64 966.8
20260505094534 65 133 0.0 7.0 0.00 0.00 0.00 65 966.8
20260505093034 65 143 2.0 12.0 0.00 0.00 0.00 66 966.8
20260505091535 64 141 4.0 11.0 0.00 0.00 0.00 67 966.9
20260505090038 65 151 3.0 15.0 0.00 0.00 0.00 64 967.0
20260505084524 66 148 9.0 15.0 0.00 0.00 0.00 62 967.3
20260505083021 66 141 8.0 15.0 0.00 0.00 0.00 59 967.3
20260505081517 67 130 7.0 13.0 0.00 0.00 0.00 57 967.4
20260505080035 68 142 3.0 19.0 0.00 0.00 0.00 53 967.6
20260505074509 69 147 4.0 13.0 0.00 0.00 0.00 48 967.4
20260505073014 69 180 6.0 14.0 0.00 0.00 0.00 48 967.3
20260505071505 69 157 2.0 12.0 0.00 0.00 0.00 47 967.4
20260505070002 69 189 4.0 15.0 0.00 0.00 0.00 45 967.3
20260505064600 70 143 1.0 19.0 0.00 0.00 0.00 42 967.2
20260505063058 70 182 4.0 16.0 0.00 0.00 0.00 40 966.7
20260505061554 71 180 4.0 16.0 0.00 0.00 0.00 37 966.6
20260505060054 71 157 2.0 11.0 0.00 0.00 0.00 34 966.6
20260505054557 72 181 3.0 14.0 0.00 0.00 0.00 34 966.7
20260505053052 72 195 2.0 15.0 0.00 0.00 0.00 34 967.1
20260505051551 72 147 0.0 9.0 0.00 0.00 0.00 35 967.2
20260505041549 74 244 0.0 0.0 0.00 0.00 0.00 45 966.8
20260505040052 74 244 0.0 0.0 0.00 0.00 0.00 45 966.9
20260505034551 74 244 0.0 0.0 0.00 0.00 0.00 45 966.6
20260505033047 74 244 0.0 0.0 0.00 0.00 0.00 44 966.4
20260505031556 74 244 0.0 0.0 0.00 0.00 0.00 43 965.9
20260505030047 75 244 0.0 0.0 0.00 0.00 0.00 42 965.9
20260505024551 75 221 0.0 0.0 0.00 0.00 0.00 41 966.0
20260505023048 76 207 0.0 0.0 0.00 0.00 0.00 40 965.9
20260505021544 76 208 0.0 0.0 0.00 0.00 0.00 37 965.7
20260505020046 76 257 0.0 0.0 0.00 0.00 0.00 38 965.9
20260505014601 76 257 0.0 0.0 0.00 0.00 0.00 41 965.6
20260505013044 76 257 0.0 0.0 0.00 0.00 0.00 40 965.5
20260505011549 76 257 0.0 0.0 0.00 0.00 0.00 40 965.5
20260505010042 76 257 0.0 0.0 0.00 0.00 0.00 39 965.6
20260505004542 76 257 0.0 0.0 0.00 0.00 0.00 40 965.6
20260505003041 76 257 0.0 0.0 0.00 0.00 0.00 40 965.6
20260505001544 76 257 0.0 0.0 0.00 0.00 0.00 40 965.8
20260505000042 76 257 0.0 8.0 0.00 0.00 0.00 40 966.1
20260504234540 76 260 0.0 0.0 0.00 0.00 0.00 41 966.2
20260504233041 76 275 0.0 0.0 0.00 0.00 0.00 41 966.0
20260504231541 76 257 3.0 9.0 0.00 0.00 0.00 41 966.1
20260504230043 76 296 0.0 1.0 0.00 0.00 0.00 42 966.0
20260504224543 75 275 0.0 10.0 0.00 0.00 0.00 42 966.2
20260504223037 75 292 4.0 11.0 0.00 0.00 0.00 42 966.5
20260504221538 76 257 2.0 11.0 0.00 0.00 0.00 41 966.4
20260504220036 76 287 0.0 0.0 0.00 0.00 0.00 41 966.5
20260504214536 76 285 2.0 10.0 0.00 0.00 0.00 42 966.7
20260504213035 76 276 0.0 0.0 0.00 0.00 0.00 43 967.3
20260504211535 75 297 7.0 13.0 0.00 0.00 0.00 43 967.6
20260504210048 76 283 1.0 15.0 0.00 0.00 0.00 42 967.4
20260504204551 77 245 3.0 12.0 0.00 0.00 0.00 38 967.5
20260504203035 77 190 4.0 11.0 0.00 0.00 0.00 40 967.3
20260504201531 76 200 3.0 12.0 0.00 0.00 0.00 41 967.4
20260504200031 76 285 0.0 7.0 0.00 0.00 0.00 42 967.4
20260504194530 76 257 1.0 10.0 0.00 0.00 0.00 43 967.3
20260504193031 76 259 7.0 13.0 0.00 0.00 0.00 44 967.9
20260504191531 75 294 7.0 13.0 0.00 0.00 0.00 44 967.9
20260504190028 75 214 1.0 8.0 0.00 0.00 0.00 45 967.4
20260504184529 74 292 1.0 10.0 0.00 0.00 0.00 46 967.3
20260504183128 75 290 1.0 11.0 0.00 0.00 0.00 45 967.8
20260504181527 75 238 4.0 11.0 0.00 0.00 0.00 39 968.2
20260504180026 75 214 9.0 16.0 0.00 0.00 0.00 36 967.8
20260504174525 0 224 4.0 14.0 0.00 0.00 0.00 37 967.7
20260504173023 75 148 0.0 14.0 0.00 0.00 0.00 37 967.4
20260504171523 75 160 4.0 13.0 0.00 0.00 0.00 36 967.9